Location: *
(43.2048°N, 0.1612°E)
Time: 18:58:52
(UTC+00:00)

SL-08 R/B - Pass Details

Date: 30 September 2023
Orbit: 947 x 992 km, 83.0° (Epoch: 04 December)

Event Time Altitude Azimuth Distance (km) Brightness Sun altitude
Rises 04:33:12 0° 194° (SSW) 3,616 7.2 -15.7°
Reaches altitude 10° 04:35:43 10° 197° (SSW) 2,670 6.5 -15.2°
Maximum altitude 04:41:46 67° 280° (W) 1,026 4.4 -14.1°
Drops below altitude 10° 04:47:51 10° 3° (N) 2,678 6.9 -13.0°
Sets 04:50:23 0° 6° (N) 3,628 7.7 -12.6°
